Location: Unspecified
(0.0000°N, 0.0000°E)
Time: 03:54:53
(UTC+00:00)

GONETS D1M 1 - Pass Details

Date: 24 May 2026
Orbit: 1435 x 1448 km, 82.5° (Epoch: 9 June)

Event Time Altitude Azimuth Distance (km) Brightness Sun altitude
Rises 18:58:49 0° 312° (NW) 4,516 10.7 -14.4°
Reaches altitude 10° 19:05:31 10° 274° (W) 3,541 9.9 -16.0°
Maximum altitude 19:06:38 10° 267° (W) 3,518 9.7 -16.3°
Drops below altitude 10° 19:07:44 10° 259° (W) 3,541 9.6 -16.5°
Sets 19:14:32 0° 220° (SW) 4,522 9.5 -18.1°
